2019-036X (44360 NORAD) Tracking and Keplerian Element Data

This shows tracking and keplerian element data for the satellite.

Feedback or suggestion? Click here.




ElementValue
Catalog44360
Name2019-036X
Epoch Orbit324
Epoch Day198.83922071
Epoch Year2019
RAAN53.9799
Inclination28.5222
Eccentricity0.0393554
Argument of Perigee344.1826
Mean Anonmoly14.6783
Mean Motion14.98539374
Decay Rate0.00012572
L11 44360U 19036X 19198.83922071 .00012572 00000-0 17535-3 0 9997
L22 44360 28.5222 53.9799 0393554 344.1826 14.6783 14.98539374 3240

Live tracking and technical data element details for 2019-036X (NORAD 44360). 2019-036X can be tracked NOW for your location showing map with azimuth and elevation plus other details from your city location.

Track the satellite on the map from your city or location and see movement details for azimuth, elevation, latitude, longitude, range, height, and movement on the map or in text.







IsCatalogInMostPopularTable: catalog: 44360, numindb: 7
Update: records affected: 1



GetName: 44360 2019-036X

Hit Count: updated at: Fri, 19 Jul 2019 08:39:38 GMT